TimePST,TemperatureF,Dew PointF,Humidity,Sea Level PressureIn,VisibilityMPH,Wind Direction,Wind SpeedMPH,Gust SpeedMPH,PrecipitationIn,Events,Conditions,WindDirDegrees,DateUTC
12:56 AM,39.0,37.0,93,30.12,3.0,Variable,4.6,-,N/A,,Clear,0,2011-11-10 08:56:00
1:56 AM,37.9,36.0,93,30.13,7.0,South,3.5,-,N/A,,Clear,170,2011-11-10 09:56:00
2:56 AM,36.0,34.0,93,30.13,5.0,South,3.5,-,N/A,,Clear,180,2011-11-10 10:56:00
3:56 AM,33.1,32.0,96,30.12,5.0,SSE,3.5,-,N/A,,Clear,150,2011-11-10 11:56:00
4:56 AM,34.0,32.0,92,30.12,3.0,SSE,3.5,-,N/A,,Clear,160,2011-11-10 12:56:00
4:59 AM,35.6,32.0,87,30.12,1.5,Calm,Calm,-,N/A,,Clear,0,2011-11-10 12:59:00
5:13 AM,35.6,33.8,93,30.12,0.8,Calm,Calm,-,N/A,,Mist,0,2011-11-10 13:13:00
5:23 AM,33.8,32.0,93,30.12,1.2,South,5.8,-,N/A,,Scattered Clouds,180,2011-11-10 13:23:00
5:25 AM,33.8,30.2,87,30.12,2.5,South,5.8,-,N/A,,Partly Cloudy,180,2011-11-10 13:25:00
5:32 AM,33.8,32.0,93,30.12,6.0,South,4.6,-,N/A,,Partly Cloudy,170,2011-11-10 13:32:00
5:56 AM,34.0,32.0,92,30.13,6.0,SSE,3.5,-,N/A,,Clear,160,2011-11-10 13:56:00
6:12 AM,33.8,32.0,93,30.12,1.5,South,5.8,-,N/A,,Partly Cloudy,180,2011-11-10 14:12:00
6:21 AM,33.8,32.0,93,30.12,0.5,South,4.6,-,N/A,Fog,Fog,170,2011-11-10 14:21:00
6:38 AM,33.8,30.2,87,30.13,1.2,South,3.5,-,N/A,,Scattered Clouds,170,2011-11-10 14:38:00
6:44 AM,33.8,32.0,93,30.13,0.8,South,3.5,-,N/A,,Mist,180,2011-11-10 14:44:00
7:56 AM,33.1,32.0,96,30.14,0.2,SSE,4.6,-,N/A,Fog,Fog,150,2011-11-10 15:56:00
8:41 AM,37.4,35.6,93,30.14,0.5,SE,3.5,-,N/A,Fog,Fog,130,2011-11-10 16:41:00
8:56 AM,39.0,37.9,96,30.14,0.8,SSE,3.5,-,N/A,,Mist,160,2011-11-10 16:56:00
8:59 AM,39.2,37.4,93,30.14,3.0,SSE,3.5,-,N/A,,Mostly Cloudy,150,2011-11-10 16:59:00
9:04 AM,39.2,39.2,100,30.14,3.0,SSE,3.5,-,N/A,,Mostly Cloudy,150,2011-11-10 17:04:00
9:45 AM,41.0,39.2,93,30.14,6.0,SE,6.9,-,N/A,,Scattered Clouds,130,2011-11-10 17:45:00
9:56 AM,42.1,39.9,92,30.14,5.0,SE,8.1,-,N/A,,Scattered Clouds,130,2011-11-10 17:56:00
10:12 AM,41.0,39.2,93,30.14,5.0,ESE,8.1,-,N/A,,Mostly Cloudy,120,2011-11-10 18:12:00
10:56 AM,43.0,41.0,93,30.14,5.0,SE,5.8,-,N/A,,Mostly Cloudy,140,2011-11-10 18:56:00
11:56 AM,50.0,42.1,74,30.12,10.0,Calm,Calm,-,N/A,,Partly Cloudy,0,2011-11-10 19:56:00
12:56 PM,51.1,37.9,61,30.10,10.0,NNW,3.5,-,N/A,,Clear,330,2011-11-10 20:56:00
1:56 PM,54.0,37.9,55,30.07,10.0,Calm,Calm,-,N/A,,Clear,0,2011-11-10 21:56:00
2:56 PM,51.1,42.1,71,30.04,10.0,SSE,5.8,-,N/A,,Clear,150,2011-11-10 22:56:00
3:56 PM,51.1,43.0,74,30.02,10.0,NNW,3.5,-,N/A,,Clear,330,2011-11-10 23:56:00
4:56 PM,46.9,42.1,83,30.02,10.0,Calm,Calm,-,N/A,,Clear,0,2011-11-11 00:56:00
6:56 PM,41.0,37.9,89,30.01,7.0,Calm,Calm,-,N/A,,Clear,0,2011-11-11 02:56:00
7:22 PM,39.2,37.4,93,30.00,1.2,Calm,Calm,-,N/A,,Partly Cloudy,0,2011-11-11 03:22:00
7:29 PM,39.2,37.4,93,30.00,5.0,SE,4.6,-,N/A,,Scattered Clouds,130,2011-11-11 03:29:00
7:56 PM,39.0,37.0,93,30.00,1.2,Calm,Calm,-,N/A,,Partly Cloudy,0,2011-11-11 03:56:00
8:01 PM,39.2,37.4,93,29.99,0.8,Calm,Calm,-,N/A,,Mist,0,2011-11-11 04:01:00
8:08 PM,37.4,35.6,93,29.99,1.2,South,3.5,-,N/A,,Partly Cloudy,180,2011-11-11 04:08:00
8:18 PM,37.4,35.6,93,29.99,2.0,Calm,Calm,-,N/A,,Clear,0,2011-11-11 04:18:00
8:35 PM,37.4,35.6,93,29.99,1.2,Calm,Calm,-,N/A,,Clear,0,2011-11-11 04:35:00
8:43 PM,37.4,35.6,93,29.99,0.8,South,3.5,-,N/A,,Mist,170,2011-11-11 04:43:00
8:46 PM,37.4,35.6,93,29.99,1.2,SSE,4.6,-,N/A,,Partly Cloudy,160,2011-11-11 04:46:00
8:48 PM,37.4,35.6,93,29.99,2.0,SSE,4.6,-,N/A,,Partly Cloudy,160,2011-11-11 04:48:00
8:56 PM,36.0,34.0,93,29.99,3.0,SE,5.8,-,N/A,,Partly Cloudy,140,2011-11-11 04:56:00
9:00 PM,35.6,33.8,93,29.98,1.8,SSE,3.5,-,N/A,,Partly Cloudy,160,2011-11-11 05:00:00
9:14 PM,35.6,33.8,93,29.98,1.0,Calm,Calm,-,N/A,,Mist,0,2011-11-11 05:14:00
9:22 PM,35.6,33.8,93,29.98,0.5,South,3.5,-,N/A,Fog,Fog,180,2011-11-11 05:22:00
9:33 PM,35.6,33.8,93,29.98,1.2,South,5.8,-,N/A,,Partly Cloudy,170,2011-11-11 05:33:00
9:40 PM,35.6,33.8,93,29.98,1.5,South,4.6,-,N/A,,Partly Cloudy,170,2011-11-11 05:40:00
9:44 PM,35.6,33.8,93,29.98,1.0,South,4.6,-,N/A,,Mist,170,2011-11-11 05:44:00
9:50 PM,35.6,33.8,93,29.98,0.8,South,3.5,-,N/A,,Mist,170,2011-11-11 05:50:00
10:37 PM,35.6,33.8,93,29.96,1.5,South,5.8,-,N/A,,Mostly Cloudy,170,2011-11-11 06:37:00
10:39 PM,35.6,33.8,93,29.96,3.0,South,5.8,-,N/A,,Scattered Clouds,170,2011-11-11 06:39:00
10:56 PM,35.1,33.1,92,29.96,8.0,SSE,4.6,-,N/A,,Partly Cloudy,160,2011-11-11 06:56:00
11:11 PM,33.8,32.0,93,29.95,1.8,South,3.5,-,N/A,,Partly Cloudy,180,2011-11-11 07:11:00
11:15 PM,33.8,32.0,93,29.95,0.8,South,5.8,-,N/A,,Mist,170,2011-11-11 07:15:00
11:30 PM,33.8,33.8,100,29.95,0.5,SSE,3.5,-,N/A,Fog,Fog,160,2011-11-11 07:30:00
11:56 PM,34.0,33.1,96,29.95,0.2,SSE,3.5,-,N/A,Fog,Fog,160,2011-11-11 07:56:00